| time (UTC) | temp C | wind direction | speed KPH | gust KPH | rain 1hr cm | rain 24hr cm | rain mn cm | humidity % | barometer mb |
| 20260905073338 | 20 | 161 | 0.0 | 1.6 | 0.00 | 0.99 | 0.00 | 67 | 1007.1 |
| 20260905071215 | 20 | 213 | 4.8 | 11.3 | 0.00 | 0.99 | 0.00 | 67 | 1007.1 |
| 20260905070154 | 20 | 211 | 6.4 | 9.7 | 0.00 | 0.99 | 0.00 | 69 | 1007.1 |
| 20260905065127 | 20 | 225 | 6.4 | 9.7 | 0.00 | 0.99 | 0.00 | 70 | 1007.0 |
| 20260905062939 | 20 | 237 | 6.4 | 12.9 | 0.00 | 0.99 | 0.00 | 69 | 1007.1 |
| 20260905061919 | 20 | 194 | 4.8 | 8.0 | 0.00 | 0.99 | 0.00 | 68 | 1007.1 |
| 20260905060844 | 20 | 215 | 4.8 | 8.0 | 0.00 | 0.99 | 0.00 | 67 | 1007.2 |
| 20260905055821 | 20 | 229 | 4.8 | 6.4 | 0.00 | 0.99 | 0.97 | 68 | 1007.2 |
| 20260905054811 | 20 | 233 | 3.2 | 4.8 | 0.00 | 0.99 | 0.97 | 67 | 1007.3 |
| 20260905053827 | 20 | 214 | 3.2 | 4.8 | 0.00 | 0.99 | 0.97 | 67 | 1007.3 |
| 20260905052806 | 20 | 225 | 4.8 | 6.4 | 0.00 | 0.99 | 0.97 | 67 | 1007.3 |
| 20260905051823 | 20 | 231 | 4.8 | 6.4 | 0.00 | 0.99 | 0.97 | 68 | 1007.2 |
| 20260905050754 | 20 | 261 | 3.2 | 6.4 | 0.00 | 0.99 | 0.97 | 67 | 1007.4 |
| 20260905045809 | 21 | 219 | 1.6 | 4.8 | 0.00 | 0.99 | 0.97 | 66 | 1007.4 |
| 20260905044810 | 21 | 179 | 1.6 | 4.8 | 0.00 | 0.99 | 0.97 | 64 | 1007.3 |
| 20260905043747 | 21 | 209 | 1.6 | 8.0 | 0.00 | 0.99 | 0.97 | 63 | 1007.3 |
| 20260905042753 | 21 | 4 | 3.2 | 8.0 | 0.00 | 0.99 | 0.97 | 62 | 1007.2 |
| 20260905041812 | 21 | 167 | 4.8 | 12.9 | 0.00 | 0.99 | 0.97 | 61 | 1007.2 |
| 20260905035652 | 22 | 179 | 4.8 | 8.0 | 0.00 | 0.99 | 0.97 | 60 | 1007.2 |
| 20260905034716 | 22 | 190 | 3.2 | 11.3 | 0.00 | 0.99 | 0.97 | 60 | 1007.1 |
| 20260905032555 | 21 | 167 | 4.8 | 12.9 | 0.00 | 0.99 | 0.97 | 62 | 1007.1 |
| 20260905031600 | 21 | 217 | 3.2 | 6.4 | 0.00 | 0.99 | 0.97 | 63 | 1007.1 |
| 20260905030617 | 21 | 214 | 1.6 | 3.2 | 0.00 | 0.99 | 0.97 | 65 | 1006.9 |
| 20260905025621 | 21 | 57 | 0.0 | 0.0 | 0.00 | 0.99 | 0.97 | 65 | 1006.8 |
| 20260905023501 | 21 | 43 | 0.0 | 0.0 | 0.00 | 0.99 | 0.97 | 65 | 1006.6 |
| 20260905022520 | 22 | 144 | 0.0 | 8.0 | 0.00 | 0.99 | 0.97 | 63 | 1006.3 |
| 20260905021515 | 22 | 121 | 0.0 | 0.0 | 0.00 | 0.99 | 0.97 | 61 | 1006.1 |
| 20260905020445 | 22 | 121 | 0.0 | 0.0 | 0.00 | 0.99 | 0.97 | 60 | 1006.1 |
| 20260905015413 | 23 | 121 | 0.0 | 0.0 | 0.00 | 0.99 | 0.97 | 56 | 1006.0 |
| 20260905014431 | 23 | 121 | 1.6 | 4.8 | 0.00 | 0.99 | 0.97 | 55 | 1006.1 |
| 20260905012317 | 24 | 187 | 3.2 | 8.0 | 0.00 | 0.99 | 0.97 | 52 | 1006.1 |
| 20260905011327 | 24 | 230 | 1.6 | 9.7 | 0.00 | 0.99 | 0.97 | 52 | 1006.0 |
| 20260905010301 | 24 | 265 | 4.8 | 16.1 | 0.00 | 0.99 | 0.97 | 51 | 1006.0 |
| 20260905005238 | 25 | 264 | 8.0 | 16.1 | 0.00 | 0.99 | 0.97 | 48 | 1005.8 |
| 20260905004214 | 25 | 288 | 8.0 | 16.1 | 0.00 | 0.99 | 0.97 | 48 | 1005.8 |
| 20260905003204 | 25 | 279 | 11.3 | 19.3 | 0.00 | 0.99 | 0.97 | 48 | 1005.6 |
| 20260905002222 | 25 | 288 | 9.7 | 19.3 | 0.00 | 0.99 | 0.97 | 51 | 1005.5 |
| 20260905001218 | 25 | 278 | 9.7 | 25.7 | 0.00 | 0.99 | 0.97 | 53 | 1005.5 |
| 20260905000144 | 24 | 282 | 12.9 | 30.6 | 0.00 | 0.99 | 0.97 | 54 | 1005.3 |
| 20260904235114 | 25 | 304 | 17.7 | 38.6 | 0.00 | 0.99 | 0.97 | 53 | 1005.2 |
| 20260904234117 | 26 | 283 | 12.9 | 38.6 | 0.00 | 0.99 | 0.97 | 49 | 1005.1 |
| 20260904233121 | 28 | 185 | 12.9 | 27.4 | 0.00 | 0.99 | 0.97 | 43 | 1005.0 |
| 20260904232128 | 27 | 225 | 14.5 | 27.4 | 0.00 | 0.99 | 0.97 | 43 | 1004.8 |
| 20260904231127 | 28 | 162 | 12.9 | 25.7 | 0.00 | 0.99 | 0.97 | 43 | 1004.9 |
| 20260904230053 | 28 | 173 | 12.9 | 30.6 | 0.00 | 0.99 | 0.97 | 42 | 1005.0 |
| 20260904225033 | 27 | 220 | 16.1 | 30.6 | 0.00 | 0.99 | 0.97 | 45 | 1005.0 |
| 20260904224020 | 28 | 175 | 12.9 | 30.6 | 0.00 | 0.99 | 0.97 | 42 | 1005.1 |
| 20260904222952 | 28 | 244 | 11.3 | 30.6 | 0.00 | 0.99 | 0.97 | 44 | 1005.0 |
| 20260904221942 | 28 | 237 | 14.5 | 29.0 | 0.00 | 0.99 | 0.97 | 42 | 1005.0 |
| 20260904215842 | 27 | 231 | 11.3 | 20.9 | 0.00 | 0.99 | 0.97 | 45 | 1005.3 |
| 20260904213745 | 28 | 180 | 12.9 | 29.0 | 0.00 | 0.99 | 0.97 | 46 | 1005.6 |
| 20260904212810 | 27 | 4 | 12.9 | 27.4 | 0.00 | 0.99 | 0.97 | 48 | 1005.6 |
| 20260904211744 | 27 | 4 | 16.1 | 27.4 | 0.00 | 0.99 | 0.97 | 48 | 1005.6 |
| 20260904210740 | 27 | 213 | 14.5 | 29.0 | 0.00 | 0.99 | 0.97 | 48 | 1005.7 |
| 20260904205713 | 27 | 211 | 14.5 | 29.0 | 0.00 | 0.99 | 0.97 | 46 | 1005.9 |
| 20260904204707 | 27 | 181 | 14.5 | 29.0 | 0.00 | 0.99 | 0.97 | 47 | 1005.9 |
| 20260904203704 | 26 | 166 | 14.5 | 29.0 | 0.00 | 0.99 | 0.97 | 53 | 1006.1 |
| 20260904202708 | 26 | 222 | 9.7 | 25.7 | 0.00 | 0.99 | 0.97 | 54 | 1006.3 |
| 20260904201650 | 26 | 227 | 12.9 | 25.7 | 0.00 | 0.99 | 0.97 | 55 | 1006.4 |
| 20260904200632 | 25 | 177 | 12.9 | 22.5 | 0.00 | 0.99 | 0.97 | 56 | 1006.6 |
| 20260904195623 | 26 | 186 | 12.9 | 22.5 | 0.00 | 0.99 | 0.97 | 56 | 1006.7 |
| 20260904194614 | 25 | 4 | 12.9 | 24.1 | 0.00 | 0.99 | 0.97 | 57 | 1006.9 |
| 20260904193557 | 25 | 226 | 16.1 | 30.6 | 0.00 | 0.99 | 0.97 | 54 | 1007.0 |
| 20260904192553 | 26 | 186 | 12.9 | 27.4 | 0.00 | 0.99 | 0.97 | 56 | 1007.1 |
| 20260904191606 | 25 | 150 | 4.8 | 22.5 | 0.00 | 0.99 | 0.97 | 53 | 1007.3 |
| 20260904190557 | 25 | 194 | 9.7 | 22.5 | 0.00 | 0.99 | 0.97 | 52 | 1007.4 |
| 20260904185544 | 26 | 143 | 9.7 | 20.9 | 0.00 | 0.99 | 0.97 | 50 | 1007.5 |
| 20260904184551 | 26 | 154 | 6.4 | 17.7 | 0.00 | 0.99 | 0.97 | 50 | 1007.6 |
| 20260904183528 | 26 | 245 | 6.4 | 16.1 | 0.00 | 0.99 | 0.97 | 51 | 1007.5 |
| 20260904182517 | 26 | 4 | 8.0 | 16.1 | 0.00 | 0.99 | 0.97 | 53 | 1007.7 |
| 20260904181536 | 25 | 211 | 6.4 | 16.1 | 0.00 | 0.99 | 0.97 | 59 | 1008.0 |
| 20260904180555 | 25 | 218 | 6.4 | 14.5 | 0.00 | 0.99 | 0.97 | 62 | 1008.1 |
| 20260904175541 | 23 | 152 | 4.8 | 14.5 | 0.00 | 0.99 | 0.97 | 62 | 1008.2 |
| 20260904174602 | 23 | 165 | 6.4 | 16.1 | 0.00 | 0.99 | 0.97 | 62 | 1008.5 |
| 20260904171251 | 23 | 213 | 6.4 | 17.7 | 0.00 | 0.99 | 0.97 | 68 | 1008.8 |
| 20260904170301 | 23 | 187 | 6.4 | 17.7 | 0.00 | 0.99 | 0.97 | 64 | 1008.7 |
| 20260904165246 | 23 | 4 | 8.0 | 16.1 | 0.00 | 0.99 | 0.97 | 69 | 1008.8 |
| 20260904163137 | 22 | 179 | 8.0 | 14.5 | 0.00 | 0.99 | 0.97 | 74 | 1008.6 |
| 20260904162128 | 22 | 130 | 6.4 | 17.7 | 0.00 | 0.99 | 0.97 | 72 | 1008.7 |
| 20260904161136 | 22 | 132 | 8.0 | 19.3 | 0.00 | 0.99 | 0.97 | 73 | 1008.7 |
| 20260904160125 | 21 | 215 | 8.0 | 19.3 | 0.00 | 0.99 | 0.97 | 76 | 1008.6 |
| 20260904155144 | 21 | 159 | 8.0 | 16.1 | 0.00 | 0.99 | 0.97 | 78 | 1008.6 |
| 20260904154126 | 20 | 192 | 4.8 | 12.9 | 0.00 | 0.99 | 0.97 | 81 | 1008.6 |
| 20260904153059 | 20 | 179 | 6.4 | 14.5 | 0.00 | 0.99 | 0.97 | 83 | 1008.6 |
| 20260904150918 | 19 | 204 | 6.4 | 11.3 | 0.00 | 0.99 | 0.97 | 85 | 1008.7 |
| 20260904145904 | 19 | 194 | 6.4 | 12.9 | 0.00 | 0.99 | 0.97 | 84 | 1008.6 |
| 20260904143735 | 19 | 4 | 4.8 | 9.7 | 0.00 | 0.99 | 0.97 | 85 | 1008.6 |
| 20260904141702 | 19 | 217 | 3.2 | 9.7 | 0.00 | 0.99 | 0.97 | 87 | 1008.3 |
| 20260904140714 | 18 | 200 | 4.8 | 9.7 | 0.00 | 0.99 | 0.97 | 87 | 1008.2 |
| 20260904133459 | 17 | 215 | 4.8 | 12.9 | 0.00 | 0.99 | 0.97 | 91 | 1007.7 |
| 20260904131313 | 17 | 206 | 4.8 | 9.7 | 0.00 | 0.99 | 0.97 | 92 | 1007.5 |
| 20260904130253 | 17 | 204 | 6.4 | 12.9 | 0.00 | 0.99 | 0.97 | 91 | 1007.3 |
| 20260904125300 | 17 | 210 | 6.4 | 14.5 | 0.00 | 0.99 | 0.97 | 92 | 1007.1 |
| 20260904124309 | 17 | 225 | 8.0 | 16.1 | 0.00 | 0.99 | 0.97 | 92 | 1006.9 |
| 20260904123329 | 17 | 215 | 8.0 | 17.7 | 0.00 | 0.99 | 0.97 | 92 | 1006.8 |
| 20260904122306 | 17 | 207 | 8.0 | 17.7 | 0.00 | 0.99 | 0.97 | 92 | 1006.8 |
| 20260904120105 | 17 | 198 | 8.0 | 14.5 | 0.00 | 0.99 | 0.97 | 92 | 1006.6 |
| 20260904115032 | 17 | 175 | 6.4 | 16.1 | 0.00 | 0.99 | 0.97 | 92 | 1006.6 |
| 20260904114019 | 17 | 213 | 8.0 | 16.1 | 0.00 | 0.99 | 0.97 | 93 | 1006.7 |
| 20260904113033 | 17 | 213 | 8.0 | 14.5 | 0.00 | 0.99 | 0.97 | 93 | 1006.7 |
| 20260904112010 | 17 | 209 | 4.8 | 9.7 | 0.00 | 0.99 | 0.97 | 93 | 1006.6 |
| 20260904110940 | 17 | 209 | 4.8 | 9.7 | 0.00 | 0.99 | 0.97 | 94 | 1006.6 |
| 20260904105932 | 17 | 209 | 4.8 | 8.0 | 0.00 | 0.99 | 0.97 | 94 | 1006.5 |
| 20260904104953 | 17 | 225 | 1.6 | 4.8 | 0.00 | 0.99 | 0.97 | 95 | 1006.6 |
| 20260904103954 | 17 | 340 | 0.0 | 1.6 | 0.00 | 0.99 | 0.97 | 95 | 1006.6 |
| 20260904103016 | 17 | 340 | 0.0 | 1.6 | 0.00 | 0.99 | 0.97 | 95 | 1006.6 |
| 20260904102041 | 17 | 111 | 0.0 | 1.6 | 0.00 | 0.99 | 0.97 | 95 | 1006.6 |
| 20260904101034 | 17 | 111 | 0.0 | 3.2 | 0.00 | 0.99 | 0.97 | 95 | 1006.8 |
| 20260904100005 | 17 | 337 | 4.8 | 14.5 | 0.00 | 0.99 | 0.97 | 94 | 1006.8 |
| 20260904095029 | 17 | 318 | 6.4 | 14.5 | 0.00 | 0.99 | 0.97 | 94 | 1006.8 |
| 20260904094053 | 17 | 333 | 4.8 | 14.5 | 0.00 | 0.99 | 0.97 | 94 | 1006.9 |
| 20260904093058 | 16 | 348 | 8.0 | 14.5 | 0.00 | 0.99 | 0.97 | 93 | 1007.0 |
| 20260904092115 | 17 | 4 | 9.7 | 16.1 | 0.10 | 0.99 | 0.97 | 93 | 1007.0 |
| 20260904091128 | 17 | 352 | 9.7 | 20.9 | 0.33 | 0.99 | 0.97 | 92 | 1007.0 |
| 20260904084944 | 18 | 14 | 6.4 | 19.3 | 0.00 | 0.00 | 0.00 | 78 | 1007.3 |
| 20260904083925 | 19 | 29 | 9.7 | 19.3 | 0.00 | 0.00 | 0.00 | 77 | 1007.2 |
| 20260904082858 | 19 | 359 | 1.6 | 9.7 | 0.00 | 0.00 | 0.00 | 76 | 1007.0 |
| 20260904081847 | 19 | 37 | 9.7 | 17.7 | 0.00 | 0.00 | 0.00 | 77 | 1007.0 |
| 20260904080910 | 19 | 67 | 3.2 | 8.0 | 0.00 | 0.00 | 0.00 | 77 | 1007.0 |
| 20260904075849 | 19 | 4 | 6.4 | 9.7 | 0.00 | 0.00 | 0.00 | 77 | 1006.6 |
| 20260904074843 | 19 | 204 | 4.8 | 9.7 | 0.00 | 0.00 | 0.00 | 77 | 1006.6 |